Weather History for Wolf Creek Pass, CO

Change the Weather History Date:

Sunday, March 10, 2013

  Actual Average (KALS) Record (KALS)
Temperature  
Mean Temperature 13 °F 32 °F  
Max Temperature 23 °F 48 °F 73 °F (1989)
Min Temperature 3 °F 16 °F 2 °F (1992)
Degree Days  
Heating Degree Days 52 33  
Month to date heating degree days 347  
Since 1 July heating degree days 6676  
Cooling Degree Days 0 0  
Month to date cooling degree days 0  
Year to date cooling degree days 0  
Moisture  
Dew Point 6 °F    
Average Humidity 73    
Maximum Humidity 100    
Minimum Humidity 36    
Precipitation  
Precipitation 0.00 in 0.01 in 0.17 in (2010)
Month to date precipitation 0.14  
Year to date precipitation 0.66  
Snow  
Snow 0.00 in 0.20 in 2.80 in (1968)
Month to date snowfall 1.5  
Since 1 July snowfall 19.6  
Snow Depth -    
Sea Level Pressure  
Sea Level Pressure 30.04 in    
Wind  
Wind Speed 13 mph (NNE)    
Max Wind Speed 28 mph    
Max Gust Speed 33 mph    
Visibility 9 miles    
Events Fog    
T = Trace of Precipitation, MM = Missing Value Source: NWS Daily Summary

Daily Weather History Graph

Daily Weather History Graph

Search for Another Location

Airport:

Trip Planner

Search our weather history database for the weather conditions in past years. The results will help you decide how hot, cold, wet, or windy it might be!

Date:

Astronomy

Mar. 10, 2013 Rise Set
Actual Time 7:25 AM MDT 7:10 PM MDT
Civil Twilight 6:59 AM MDT 7:36 PM MDT
Nautical Twilight 6:28 AM MDT 8:06 PM MDT
Astronomical Twilight 5:58 AM MDT 8:36 PM MDT
Moon 6:26 AM MDT 6:21 PM MDT
Length of Visible Light 12h 37m
Length of Day
11h 44m
Waning Crescent, 1% of the Moon is Illuminated
Mar 10
Waning Crescent
Mar 11
New
Mar 19
First Quarter
Mar 27
Full
Apr 2
Last Quarter

Hourly Weather History & Observations

Time (MDT) Temp. Windchill Dew Point Humidity Pressure Visibility Wind Dir Wind Speed Gust Speed Precip Events Conditions
12:14 AM 8.6 °F -6.3 °F 6.8 °F 92% 29.91 in 10.0 mi NE 11.5 mph - N/A   Clear
12:34 AM 8.6 °F -6.3 °F 5.0 °F 85% 29.91 in 10.0 mi NNE 11.5 mph - N/A   Clear
12:54 AM 8.6 °F -6.3 °F 5.0 °F 85% 29.92 in 10.0 mi NNE 11.5 mph - N/A   Clear
1:14 AM 8.6 °F -6.3 °F 5.0 °F 85% 29.92 in 10.0 mi NNE 11.5 mph - N/A   Scattered Clouds
1:34 AM 8.6 °F -3.7 °F 5.0 °F 85% 29.93 in 10.0 mi North 8.1 mph - N/A   Scattered Clouds
1:54 AM 8.6 °F -1.3 °F 5.0 °F 85% 29.93 in 10.0 mi WNW 5.8 mph - N/A   Clear
3:14 AM 6.8 °F -5.9 °F 5.0 °F 92% 29.93 in 10.0 mi NW 8.1 mph - N/A   Clear
3:34 AM 6.8 °F -7.8 °F 5.0 °F 92% 29.93 in 10.0 mi North 10.4 mph - N/A   Clear
3:54 AM 6.8 °F -8.6 °F 3.2 °F 85% 29.93 in 10.0 mi NNE 11.5 mph - N/A   Clear
4:14 AM 6.8 °F -8.6 °F 3.2 °F 85% 29.92 in 10.0 mi NNE 11.5 mph - N/A   Scattered Clouds
4:34 AM 5.0 °F -12.3 °F 3.2 °F 92% 29.92 in 10.0 mi NNE 13.8 mph - N/A   Scattered Clouds
4:54 AM 5.0 °F -11.6 °F 3.2 °F 92% 29.91 in 10.0 mi NNE 12.7 mph - N/A   Clear
5:14 AM 5.0 °F -11.6 °F 1.4 °F 85% 29.91 in 10.0 mi NE 12.7 mph 18.4 mph N/A   Clear
5:34 AM 3.2 °F -16.5 °F 1.4 °F 92% 29.92 in 10.0 mi NE 17.3 mph - N/A   Clear
5:54 AM 3.2 °F -18.6 °F 1.4 °F 92% 29.91 in 10.0 mi NNE 21.9 mph 25.3 mph N/A   Clear
6:14 AM 5.0 °F -16.7 °F 1.4 °F 85% 29.91 in 5.0 mi NNE 23.0 mph - N/A   Clear
6:54 AM 3.2 °F -19.5 °F 1.4 °F 92% 29.92 in 3.0 mi NNE 24.2 mph 31.1 mph N/A   Clear
7:14 AM 3.2 °F -19.5 °F 1.4 °F 92% 29.93 in 5.0 mi NNE 24.2 mph - N/A   Clear
7:34 AM 3.2 °F -20.7 °F 1.4 °F 92% 29.93 in 2.5 mi NNE 27.6 mph - N/A   Clear
7:54 AM 3.2 °F -19.9 °F -0.4 °F 85% 29.94 in 3.0 mi NNE 25.3 mph - N/A   Clear
8:14 AM 3.2 °F -19.5 °F 1.4 °F 92% 29.94 in 7.0 mi NE 24.2 mph - N/A   Clear
8:34 AM 5.0 °F -17.1 °F 1.4 °F 85% 29.96 in 4.0 mi NE 24.2 mph - N/A   Clear
8:54 AM 5.0 °F -16.7 °F 3.2 °F 92% 29.97 in 7.0 mi NE 23.0 mph - N/A   Scattered Clouds
9:14 AM 8.6 °F -11.4 °F 5.0 °F 85% 29.98 in 10.0 mi NNE 21.9 mph 27.6 mph N/A   Scattered Clouds
9:34 AM 8.6 °F -10.5 °F 5.0 °F 85% 29.99 in 10.0 mi NE 19.6 mph 27.6 mph N/A   Clear
9:54 AM 10.4 °F -7.2 °F 6.8 °F 85% 30.00 in 7.0 mi NE 17.3 mph - N/A   Clear
10:13 AM 10.4 °F -4.8 °F 6.8 °F 85% 30.01 in 10.0 mi NE 12.7 mph - N/A   Clear
10:34 AM 10.4 °F -5.4 °F 8.6 °F 92% 30.02 in 10.0 mi NE 13.8 mph 19.6 mph N/A   Clear
10:54 AM 12.2 °F -6.3 °F 8.6 °F 85% 30.02 in 10.0 mi NE 20.7 mph 25.3 mph N/A   Clear
11:14 AM 12.2 °F -4.3 °F 10.4 °F 92% 30.02 in 7.0 mi ENE 16.1 mph 24.2 mph N/A   Clear
11:34 AM 12.2 °F -4.8 °F 10.4 °F 92% 30.03 in 7.0 mi NE 17.3 mph 23.0 mph N/A   Clear
11:53 AM 14.0 °F -1.4 °F 8.6 °F 79% 30.04 in 10.0 mi NE 15.0 mph 23.0 mph N/A   Clear
12:14 PM 15.8 °F -0.2 °F 10.4 °F 79% 30.04 in 5.0 mi ENE 17.3 mph 27.6 mph N/A   Haze
12:34 PM 17.6 °F 3.2 °F 6.8 °F 63% 30.05 in 4.0 mi NE 15.0 mph 27.6 mph N/A   Haze
12:54 PM 19.4 °F 6.6 °F 6.8 °F 58% 30.05 in 10.0 mi NNE 12.7 mph 21.9 mph N/A   Clear
1:02 PM 19.4 °F 8.6 °F 8.6 °F 63% 30.05 in 10.0 mi NE 9.2 mph 17.3 mph N/A   Clear
1:33 PM 19.4 °F 12.8 °F 6.8 °F 58% 30.05 in 10.0 mi NE 4.6 mph 21.9 mph N/A   Clear
1:53 PM 21.2 °F 8.3 °F 8.6 °F 58% 30.06 in 10.0 mi NNE 13.8 mph 20.7 mph N/A   Unknown
2:14 PM 21.2 °F 11.7 °F 5.0 °F 50% 30.06 in 10.0 mi ENE 8.1 mph 18.4 mph N/A   Clear
2:34 PM 23.0 °F 11.1 °F 10.4 °F 59% 30.06 in 10.0 mi North 12.7 mph 18.4 mph N/A   Clear
2:54 PM 23.0 °F 8.3 °F 8.6 °F 54% 30.05 in 10.0 mi NNE 19.6 mph 26.5 mph N/A   Clear
3:13 PM 23.0 °F 11.1 °F 6.8 °F 50% 30.06 in 10.0 mi ENE 12.7 mph 25.3 mph N/A   Clear
3:34 PM 23.0 °F 13.9 °F 8.6 °F 54% 30.07 in 10.0 mi NNE 8.1 mph 16.1 mph N/A   Scattered Clouds
3:53 PM 23.0 °F 12.4 °F 8.6 °F 54% 30.07 in 10.0 mi NNE 10.4 mph 18.4 mph N/A   Scattered Clouds
4:14 PM 23.0 °F 15.8 °F 6.8 °F 50% 30.07 in 10.0 mi ENE 5.8 mph 16.1 mph N/A   Clear
4:34 PM 21.2 °F - 15.8 °F 80% 30.08 in 10.0 mi Calm Calm - N/A   Clear
4:54 PM 21.2 °F 14.9 °F 17.6 °F 86% 30.09 in 10.0 mi SSW 4.6 mph - N/A   Clear
5:14 PM 19.4 °F 11.5 °F 17.6 °F 93% 30.09 in 10.0 mi SW 5.8 mph - N/A   Mostly Cloudy
5:34 PM 21.2 °F - 14.0 °F 74% 30.10 in 10.0 mi Calm Calm - N/A   Scattered Clouds
5:54 PM 19.4 °F 10.4 °F 17.6 °F 93% 30.10 in 1.0 mi SW 6.9 mph - N/A   Overcast
6:14 PM 17.6 °F - 17.6 °F 100% 30.11 in 0.5 mi Calm Calm - N/A Fog Light Freezing Fog
6:34 PM 19.4 °F 12.8 °F 14.0 °F 80% 30.11 in 10.0 mi West 4.6 mph - N/A   Scattered Clouds
6:54 PM 19.4 °F 12.8 °F 12.2 °F 74% 30.12 in 10.0 mi NNW 4.6 mph - N/A   Clear
7:14 PM 17.6 °F 9.3 °F 10.4 °F 73% 30.12 in 10.0 mi NNW 5.8 mph - N/A   Clear
7:34 PM 17.6 °F 7.3 °F 6.8 °F 63% 30.13 in 10.0 mi North 8.1 mph - N/A   Clear
7:54 PM 17.6 °F 5.0 °F 3.2 °F 53% 30.13 in 10.0 mi North 11.5 mph - N/A   Clear
8:34 PM 17.6 °F 9.3 °F 3.2 °F 53% 30.15 in 10.0 mi ENE 5.8 mph 17.3 mph N/A   Clear
8:54 PM 15.8 °F 2.7 °F 1.4 °F 53% 30.16 in 10.0 mi North 11.5 mph - N/A   Clear
9:14 PM 15.8 °F 0.9 °F 3.2 °F 58% 30.16 in 10.0 mi NNE 15.0 mph 21.9 mph N/A   Clear
9:34 PM 17.6 °F 0.5 °F 1.4 °F 49% 30.17 in 10.0 mi North 21.9 mph 26.5 mph N/A   Clear
9:54 PM 17.6 °F 1.3 °F -0.4 °F 45% 30.15 in 10.0 mi NNE 19.6 mph - N/A   Clear
10:14 PM 17.6 °F -0.3 °F -2.2 °F 42% 30.15 in 10.0 mi NNE 24.2 mph - N/A   Clear
10:34 PM 19.4 °F 1.1 °F -4.0 °F 36% 30.15 in 10.0 mi NNE 27.6 mph 32.2 mph N/A   Clear
10:54 PM 17.6 °F 0.9 °F -0.4 °F 45% 30.15 in 10.0 mi NNE 20.7 mph 33.4 mph N/A   Clear
11:34 PM 17.6 °F 0.1 °F -0.4 °F 45% 30.17 in 10.0 mi NNE 23.0 mph 32.2 mph N/A   Clear
11:54 PM 17.6 °F 3.7 °F -0.4 °F 45% 30.19 in 10.0 mi NE 13.8 mph - N/A   Clear
12:14 AM 14.0 °F -2.5 °F -0.4 °F 53% 30.19 in 10.0 mi NNE 17.3 mph 25.3 mph N/A   Clear
12:34 AM 17.6 °F 5.0 °F -0.4 °F 45% 30.19 in 10.0 mi North 11.5 mph 19.6 mph N/A   Clear
12:54 AM 17.6 °F 5.0 °F -0.4 °F 45% 30.19 in 10.0 mi North 11.5 mph 20.7 mph N/A   Clear